Погода в Улленсакере

Норвегия     60°05′02″N   11°09′49″E
темп.,
°C
ветер,
м/с
пор.,
м/с
влажн.,
%
обл.,
%
осадки,
мм/ч
давл.,
гПа
погр.,
м
7 мая, пт
пт723:00+2ссв2761100 0.0 1002195
02:000с2572100 0.0 1003126
05:00−1с2578100 0.0 1004127
08:00+2с245350 0.0 1005419
11:00+7с243419 0.0 10051876
14:00+10с232595 0.0 10042611
17:00+11с132485 0.0 10032591
20:00+9с114037 0.0 100425
8 мая, сб
сб823:00+4с116139 0.0 100620
02:00+1ссв116967 0.1 100721
05:00−1ссв11755 0.0 100810
08:00+5св125229 0.1 1008375
11:00+10юз01477 0.3 10081159
14:00+13зсз13315 0.5 10072410
17:00+12юз2327100 0.0 10062401
20:00+8ююз3660100 0.3 1007459
9 мая, вс
вс923:00+5ююв2582100 0.4 1008185
02:00+5ю2577100 0.4 1007198
05:00+4юв1181100 0.0 100729
08:00+4вюв3891100 0.9 1004962
11:00+4в2897100 3.8 1004687
14:00+4всв2697100 5.3 1004510
17:00+4св1497100 0.8 1004348
20:00+4св1297100 1.1 1005161
10 мая, пн
пн1023:00+4в1198100 0.2 100527
02:00+5всв1198100 0.3 100625
05:00+6ссз0099100 0.1 100534
08:00+6с12100100 2.4 100473
11:00+8ссз1399100 3.2 1004193
14:00+8ссз0299100 3.6 1004153
17:00+11вюв1398100 0.0 1005179
20:00+14ю51493100 3.8 10041077
11 мая, вт
вт1123:00+12ю41297100 0.8 1005887
02:00+9ююз41097100 0.8 1008523
05:00+7ююз269895 0.0 1010167
08:00+8ююз2692100 0.0 1012405
11:00+11юз3580100 0.0 1013511
14:00+11ююз2374100 0.4 1014659
17:00+14ююз1259100 0.0 10131104
20:00+9вюв1193100 0.6 101423